Time,TemperatureF,DewpointF,PressureIn,WindDirection,WindDirectionDegrees,WindSpeedMPH,WindSpeedGustMPH,Humidity,HourlyPrecipIn,Conditions,Clouds,dailyrainin,SoftwareType,DateUTC
2013-02-02 00:00:00,45.3,31.8,30.25,West,276,0.0,0.0,59,0.00,CLR,,0.00,WeatherDisplay:10.37,2013-02-02 05:00:00,
2013-02-02 00:01:00,45.3,31.8,30.25,West,276,0.0,0.0,59,0.00,CLR,,0.00,WeatherDisplay:10.37,2013-02-02 05:01:00,
2013-02-02 00:06:00,45.3,32.2,30.25,West,276,0.0,0.0,60,0.00,CLR,,0.00,WeatherDisplay:10.37,2013-02-02 05:06:00,
2013-02-02 00:16:00,45.3,32.7,30.25,West,276,0.0,0.0,61,0.00,CLR,,0.00,WeatherDisplay:10.37,2013-02-02 05:16:00,
2013-02-02 00:21:00,45.1,32.5,30.25,West,276,0.0,0.0,61,0.00,CLR,,0.00,WeatherDisplay:10.37,2013-02-02 05:21:00,
2013-02-02 00:31:00,45.0,32.7,30.25,West,276,0.0,0.0,62,0.00,CLR,,0.00,WeatherDisplay:10.37,2013-02-02 05:31:00,
2013-02-02 00:36:00,45.0,32.7,30.25,West,276,0.0,0.0,62,0.00,CLR,,0.00,WeatherDisplay:10.37,2013-02-02 05:36:00,
2013-02-02 00:46:00,44.8,32.9,30.25,West,276,0.0,0.0,63,0.00,CLR,,0.00,WeatherDisplay:10.37,2013-02-02 05:46:00,
2013-02-02 00:51:00,44.8,33.3,30.25,West,276,0.0,0.0,64,0.00,CLR,,0.00,WeatherDisplay:10.37,2013-02-02 05:51:00,
2013-02-02 01:00:00,45.3,34.2,30.25,North,357,0.0,0.0,65,0.00,CLR,,0.00,WeatherDisplay:10.37,2013-02-02 06:00:00,
2013-02-02 01:01:00,46.2,35.5,30.25,NNW,331,0.0,0.0,66,0.00,CLR,,0.00,WeatherDisplay:10.37,2013-02-02 06:01:00,
2013-02-02 01:05:00,45.7,35.0,30.25,North,6,0.0,0.0,66,0.00,CLR,,0.00,WeatherDisplay:10.37,2013-02-02 06:05:00,
2013-02-02 01:10:00,46.0,35.3,30.25,NNE,26,0.0,0.0,66,0.00,CLR,,0.00,WeatherDisplay:10.37,2013-02-02 06:10:00,
2013-02-02 01:16:00,46.4,35.7,30.25,NNW,348,0.0,0.0,66,0.00,CLR,,0.00,WeatherDisplay:10.37,2013-02-02 06:16:00,
2013-02-02 01:21:00,46.9,36.5,30.25,North,6,0.0,0.0,67,0.00,CLR,,0.00,WeatherDisplay:10.37,2013-02-02 06:21:00,
2013-02-02 01:31:00,47.8,37.8,30.25,North,353,2.7,0.0,68,0.00,CLR,,0.00,WeatherDisplay:10.37,2013-02-02 06:31:00,
2013-02-02 01:36:00,48.4,39.0,30.25,NNE,12,3.4,0.0,70,0.00,CLR,,0.00,WeatherDisplay:10.37,2013-02-02 06:36:00,
2013-02-02 01:46:00,49.5,40.4,30.25,North,8,2.3,0.0,71,0.00,CLR,,0.00,WeatherDisplay:10.37,2013-02-02 06:46:00,
2013-02-02 01:51:00,49.6,40.6,30.25,NNE,14,0.0,0.0,71,0.00,CLR,,0.00,WeatherDisplay:10.37,2013-02-02 06:51:00,
2013-02-02 02:00:00,49.8,40.8,30.25,North,7,0.0,0.0,71,0.00,CLR,,0.00,WeatherDisplay:10.37,2013-02-02 07:00:00,
2013-02-02 02:01:00,49.6,39.5,30.22,NNE,17,5.8,5.8,68,0.00,CLR,,0.00,WeatherDisplay:10.37,2013-02-02 07:01:00,
2013-02-02 02:05:00,49.6,40.3,30.25,North,2,0.0,0.0,70,0.00,CLR,,0.00,WeatherDisplay:10.37,2013-02-02 07:05:00,
2013-02-02 02:10:00,49.6,39.9,30.22,North,9,5.4,5.4,69,0.00,CLR,,0.00,WeatherDisplay:10.37,2013-02-02 07:10:00,
2013-02-02 02:16:00,50.0,38.7,30.22,North,0,3.6,3.6,65,0.00,CLR,,0.00,WeatherDisplay:10.37,2013-02-02 07:16:00,
2013-02-02 02:21:00,50.4,37.4,30.22,North,353,5.8,5.8,61,0.00,CLR,,0.00,WeatherDisplay:10.37,2013-02-02 07:21:00,
2013-02-02 02:31:00,50.5,36.3,30.22,NNE,14,3.4,3.4,58,0.00,CLR,,0.00,WeatherDisplay:10.37,2013-02-02 07:31:00,
2013-02-02 02:36:00,50.5,35.4,30.22,NNE,22,3.1,0.0,56,0.00,CLR,,0.00,WeatherDisplay:10.37,2013-02-02 07:36:00,
2013-02-02 02:46:00,50.7,34.2,30.22,NNE,17,3.4,0.0,53,0.00,CLR,,0.00,WeatherDisplay:10.37,2013-02-02 07:46:00,
2013-02-02 02:51:00,50.7,33.7,30.22,NNE,25,3.6,0.0,52,0.00,CLR,,0.00,WeatherDisplay:10.37,2013-02-02 07:51:00,
2013-02-02 03:00:00,50.4,32.9,30.22,NE,43,3.4,0.0,51,0.00,CLR,,0.00,WeatherDisplay:10.37,2013-02-02 08:00:00,
2013-02-02 03:01:00,50.0,32.1,30.22,NNE,23,0.0,0.0,50,0.00,CLR,,0.00,WeatherDisplay:10.37,2013-02-02 08:01:00,
2013-02-02 03:05:00,50.2,32.7,30.22,NNE,33,2.3,0.0,51,0.00,CLR,,0.00,WeatherDisplay:10.37,2013-02-02 08:05:00,
2013-02-02 03:11:00,50.0,32.1,30.22,NNE,23,0.0,0.0,50,0.00,CLR,,0.00,WeatherDisplay:10.37,2013-02-02 08:11:00,
2013-02-02 03:16:00,49.8,32.4,30.22,NNE,18,2.7,0.0,51,0.00,CLR,,0.00,WeatherDisplay:10.37,2013-02-02 08:16:00,
2013-02-02 03:21:00,49.8,32.4,30.22,NNE,25,0.0,0.0,51,0.00,CLR,,0.00,WeatherDisplay:10.37,2013-02-02 08:21:00,
2013-02-02 03:31:00,49.6,31.7,30.22,NNE,23,2.7,0.0,50,0.00,CLR,,0.00,WeatherDisplay:10.37,2013-02-02 08:31:00,
2013-02-02 03:36:00,49.6,31.7,30.22,NNE,24,3.4,3.4,50,0.00,CLR,,0.00,WeatherDisplay:10.37,2013-02-02 08:36:00,
2013-02-02 03:46:00,49.8,31.9,30.22,East,90,2.7,0.0,50,0.00,CLR,,0.00,WeatherDisplay:10.37,2013-02-02 08:46:00,
2013-02-02 03:51:00,49.6,31.7,30.22,ENE,76,0.0,0.0,50,0.00,CLR,,0.00,WeatherDisplay:10.37,2013-02-02 08:51:00,
2013-02-02 04:00:00,49.6,31.2,30.22,ENE,71,3.6,0.0,49,0.00,CLR,,0.00,WeatherDisplay:10.37,2013-02-02 09:00:00,
2013-02-02 04:01:00,49.6,31.2,30.22,North,0,3.4,3.4,49,0.00,CLR,,0.00,WeatherDisplay:10.37,2013-02-02 09:01:00,
2013-02-02 04:05:00,49.6,31.2,30.22,ENE,78,2.3,0.0,49,0.00,CLR,,0.00,WeatherDisplay:10.37,2013-02-02 09:05:00,
2013-02-02 04:10:00,49.6,31.2,30.22,NE,54,4.0,4.0,49,0.00,CLR,,0.00,WeatherDisplay:10.37,2013-02-02 09:10:00,
2013-02-02 04:16:00,49.6,31.2,30.22,North,8,0.0,0.0,49,0.00,CLR,,0.00,WeatherDisplay:10.37,2013-02-02 09:16:00,
2013-02-02 04:21:00,49.5,30.6,30.22,NNE,26,3.4,3.4,48,0.00,CLR,,0.00,WeatherDisplay:10.37,2013-02-02 09:21:00,
2013-02-02 04:31:00,49.5,30.0,30.22,East,84,3.4,3.4,47,0.00,CLR,,0.00,WeatherDisplay:10.37,2013-02-02 09:31:00,
2013-02-02 04:36:00,49.5,30.0,30.22,NNE,32,4.6,4.6,47,0.00,CLR,,0.00,WeatherDisplay:10.37,2013-02-02 09:36:00,
2013-02-02 04:46:00,49.5,30.0,30.22,East,98,3.4,0.0,47,0.00,CLR,,0.00,WeatherDisplay:10.37,2013-02-02 09:46:00,
2013-02-02 04:51:00,49.3,29.4,30.22,North,8,3.4,3.4,46,0.00,CLR,,0.00,WeatherDisplay:10.37,2013-02-02 09:51:00,
2013-02-02 05:00:00,49.3,29.4,30.22,NE,45,3.6,3.6,46,0.00,CLR,,0.00,WeatherDisplay:10.37,2013-02-02 10:00:00,
2013-02-02 05:01:00,49.3,29.4,30.22,NNE,20,3.4,3.4,46,0.00,CLR,,0.00,WeatherDisplay:10.37,2013-02-02 10:01:00,
2013-02-02 05:05:00,49.3,29.4,30.22,ESE,106,3.4,3.4,46,0.00,CLR,,0.00,WeatherDisplay:10.37,2013-02-02 10:05:00,
2013-02-02 05:10:00,49.3,29.4,30.22,North,353,3.1,0.0,46,0.00,CLR,,0.00,WeatherDisplay:10.37,2013-02-02 10:10:00,
2013-02-02 05:16:00,49.3,29.4,30.22,North,353,2.3,2.3,46,0.00,CLR,,0.00,WeatherDisplay:10.37,2013-02-02 10:16:00,
2013-02-02 05:21:00,49.1,29.2,30.22,ENE,78,3.4,3.4,46,0.00,CLR,,0.00,WeatherDisplay:10.37,2013-02-02 10:21:00,
2013-02-02 05:31:00,48.9,29.6,30.22,ENE,58,3.6,3.6,47,0.00,CLR,,0.00,WeatherDisplay:10.37,2013-02-02 10:31:00,
2013-02-02 05:36:00,48.7,29.4,30.22,ESE,108,2.3,0.0,47,0.00,CLR,,0.00,WeatherDisplay:10.37,2013-02-02 10:36:00,
2013-02-02 05:46:00,48.6,29.2,30.22,NE,37,3.4,0.0,47,0.00,CLR,,0.00,WeatherDisplay:10.37,2013-02-02 10:46:00,
2013-02-02 05:51:00,48.4,29.6,30.22,East,88,0.0,0.0,48,0.00,CLR,,0.00,WeatherDisplay:10.37,2013-02-02 10:51:00,
2013-02-02 06:00:00,48.2,29.4,30.22,NNE,14,3.4,0.0,48,0.00,CLR,,0.00,WeatherDisplay:10.37,2013-02-02 11:00:00,
2013-02-02 06:01:00,47.8,29.6,30.22,ENE,71,0.0,0.0,49,0.00,CLR,,0.00,WeatherDisplay:10.37,2013-02-02 11:01:00,
2013-02-02 06:05:00,48.0,29.7,30.22,NNE,33,2.3,0.0,49,0.00,CLR,,0.00,WeatherDisplay:10.37,2013-02-02 11:05:00,
2013-02-02 06:10:00,47.8,29.6,30.22,ENE,71,0.0,0.0,49,0.00,CLR,,0.00,WeatherDisplay:10.37,2013-02-02 11:10:00,
2013-02-02 06:16:00,47.8,30.1,30.22,ENE,65,0.0,0.0,50,0.00,CLR,,0.00,WeatherDisplay:10.37,2013-02-02 11:16:00,
2013-02-02 06:21:00,47.7,29.9,30.22,NE,44,2.3,0.0,50,0.00,CLR,,0.00,WeatherDisplay:10.37,2013-02-02 11:21:00,
2013-02-02 06:31:00,47.5,30.2,30.22,NNE,31,2.3,0.0,51,0.00,CLR,,0.00,WeatherDisplay:10.37,2013-02-02 11:31:00,
2013-02-02 06:36:00,47.3,30.1,30.22,North,353,2.7,0.0,51,0.00,CLR,,0.00,WeatherDisplay:10.37,2013-02-02 11:36:00,
2013-02-02 06:46:00,47.5,30.2,30.25,NE,46,0.0,0.0,51,0.00,CLR,,0.00,WeatherDisplay:10.37,2013-02-02 11:46:00,
2013-02-02 06:51:00,47.5,30.2,30.25,North,3,0.0,0.0,51,0.00,CLR,,0.00,WeatherDisplay:10.37,2013-02-02 11:51:00,
2013-02-02 07:00:00,47.3,29.6,30.25,NNE,24,0.0,0.0,50,0.00,CLR,,0.00,WeatherDisplay:10.37,2013-02-02 12:00:00,
2013-02-02 07:01:00,46.9,29.2,30.25,North,0,0.0,0.0,50,0.00,CLR,,0.00,WeatherDisplay:10.37,2013-02-02 12:01:00,
2013-02-02 07:05:00,47.1,29.4,30.25,North,0,0.0,0.0,50,0.00,CLR,,0.00,WeatherDisplay:10.37,2013-02-02 12:05:00,
2013-02-02 07:10:00,46.9,29.2,30.25,North,0,0.0,0.0,50,0.00,CLR,,0.00,WeatherDisplay:10.37,2013-02-02 12:10:00,
2013-02-02 07:16:00,46.8,29.1,30.25,North,0,0.0,0.0,50,0.00,CLR,,0.00,WeatherDisplay:10.37,2013-02-02 12:16:00,
2013-02-02 07:21:00,46.6,28.9,30.25,North,1,0.0,0.0,50,0.00,CLR,,0.00,WeatherDisplay:10.37,2013-02-02 12:21:00,
2013-02-02 07:31:00,46.4,29.2,30.25,ENE,76,0.0,0.0,51,0.00,CLR,,0.00,WeatherDisplay:10.37,2013-02-02 12:31:00,
2013-02-02 07:36:00,46.4,29.2,30.25,NE,42,0.0,0.0,51,0.00,CLR,,0.00,WeatherDisplay:10.37,2013-02-02 12:36:00,
2013-02-02 07:46:00,46.4,29.7,30.25,NNE,20,0.0,0.0,52,0.00,CLR,,0.00,WeatherDisplay:10.37,2013-02-02 12:46:00,
2013-02-02 07:51:00,46.6,30.3,30.25,NNE,21,0.0,0.0,53,0.00,CLR,,0.00,WeatherDisplay:10.37,2013-02-02 12:51:00,
2013-02-02 08:00:00,47.3,31.5,30.25,NNW,339,3.6,0.0,54,0.00,CLR,,0.00,WeatherDisplay:10.37,2013-02-02 13:00:00,
2013-02-02 08:01:00,48.6,33.6,30.25,NNW,346,5.8,5.8,56,0.00,CLR,,0.00,WeatherDisplay:10.37,2013-02-02 13:01:00,
2013-02-02 08:05:00,47.7,32.7,30.25,NNE,33,3.4,3.4,56,0.00,CLR,,0.00,WeatherDisplay:10.37,2013-02-02 13:05:00,
2013-02-02 08:10:00,48.4,33.4,30.25,NNE,22,5.8,5.8,56,0.00,CLR,,0.00,WeatherDisplay:10.37,2013-02-02 13:10:00,
2013-02-02 08:16:00,49.1,34.1,30.25,NE,53,5.8,5.8,56,0.00,CLR,,0.00,WeatherDisplay:10.37,2013-02-02 13:16:00,
2013-02-02 08:21:00,49.6,34.1,30.25,North,0,3.4,0.0,55,0.00,CLR,,0.00,WeatherDisplay:10.37,2013-02-02 13:21:00,
2013-02-02 08:31:00,50.4,32.9,30.27,North,10,8.1,8.1,51,0.00,CLR,,0.00,WeatherDisplay:10.37,2013-02-02 13:31:00,
2013-02-02 08:36:00,50.5,32.6,30.27,North,350,5.8,5.8,50,0.00,CLR,,0.00,WeatherDisplay:10.37,2013-02-02 13:36:00,
2013-02-02 08:46:00,51.4,33.4,30.27,NNW,335,5.8,5.8,50,0.00,CLR,,0.00,WeatherDisplay:10.37,2013-02-02 13:46:00,
2013-02-02 08:51:00,51.6,33.6,30.27,North,7,4.6,4.6,50,0.00,CLR,,0.00,WeatherDisplay:10.37,2013-02-02 13:51:00,
2013-02-02 09:00:00,52.2,33.0,30.25,East,83,4.6,4.6,48,0.00,CLR,,0.00,WeatherDisplay:10.37,2013-02-02 14:00:00,
2013-02-02 09:01:00,53.1,33.3,30.25,NE,40,8.1,8.1,47,0.00,CLR,,0.00,WeatherDisplay:10.37,2013-02-02 14:01:00,
2013-02-02 09:05:00,52.5,33.4,30.25,North,9,3.4,3.4,48,0.00,CLR,,0.00,WeatherDisplay:10.37,2013-02-02 14:05:00,
2013-02-02 09:10:00,52.9,33.2,30.25,NNE,14,10.3,10.3,47,0.00,CLR,,0.00,WeatherDisplay:10.37,2013-02-02 14:10:00,
2013-02-02 09:16:00,53.2,33.5,30.25,NNW,342,5.8,5.8,47,0.00,CLR,,0.00,WeatherDisplay:10.37,2013-02-02 14:16:00,
2013-02-02 09:21:00,53.4,33.7,30.25,NNW,344,8.0,8.0,47,0.00,CLR,,0.00,WeatherDisplay:10.37,2013-02-02 14:21:00,
2013-02-02 09:31:00,54.1,33.8,30.25,NE,47,5.8,5.8,46,0.00,CLR,,0.00,WeatherDisplay:10.37,2013-02-02 14:31:00,
2013-02-02 09:36:00,54.5,34.1,30.25,ENE,75,3.6,3.6,46,0.00,CLR,,0.00,WeatherDisplay:10.37,2013-02-02 14:36:00,
2013-02-02 09:46:00,55.6,33.4,30.25,NNW,339,5.8,5.8,43,0.00,CLR,,0.00,WeatherDisplay:10.37,2013-02-02 14:46:00,
2013-02-02 09:51:00,56.1,33.3,30.25,North,353,4.9,4.9,42,0.00,CLR,,0.00,WeatherDisplay:10.37,2013-02-02 14:51:00,
2013-02-02 10:00:00,56.7,32.6,30.25,South,184,3.6,3.6,40,0.00,CLR,,0.00,WeatherDisplay:10.37,2013-02-02 15:00:00,
2013-02-02 10:01:00,57.7,33.6,30.25,NNW,333,5.8,5.8,40,0.00,CLR,,0.00,WeatherDisplay:10.37,2013-02-02 15:01:00,
2013-02-02 10:05:00,57.0,32.9,30.25,NNE,12,4.0,4.0,40,0.00,CLR,,0.00,WeatherDisplay:10.37,2013-02-02 15:05:00,
2013-02-02 10:10:00,57.6,33.4,30.25,ESE,110,5.4,5.4,40,0.00,CLR,,0.00,WeatherDisplay:10.37,2013-02-02 15:10:00,
2013-02-02 10:16:00,58.3,33.4,30.25,ESE,106,5.8,5.8,39,0.00,CLR,,0.00,WeatherDisplay:10.37,2013-02-02 15:16:00,
2013-02-02 10:21:00,58.8,33.2,30.25,ESE,121,5.8,5.8,38,0.00,CLR,,0.00,WeatherDisplay:10.37,2013-02-02 15:21:00,
2013-02-02 10:31:00,59.5,32.5,30.25,NNW,331,4.6,4.6,36,0.00,CLR,,0.00,WeatherDisplay:10.37,2013-02-02 15:31:00,
2013-02-02 10:36:00,59.9,32.2,30.25,East,101,5.8,5.8,35,0.00,CLR,,0.00,WeatherDisplay:10.37,2013-02-02 15:36:00,
2013-02-02 10:46:00,60.4,32.6,30.25,SE,131,3.6,3.6,35,0.00,CLR,,0.00,WeatherDisplay:10.37,2013-02-02 15:46:00,
2013-02-02 10:51:00,60.8,32.2,30.25,North,0,5.8,5.8,34,0.00,CLR,,0.00,WeatherDisplay:10.37,2013-02-02 15:51:00,
2013-02-02 11:00:00,61.3,32.7,30.25,SE,129,5.8,5.8,34,0.00,CLR,,0.00,WeatherDisplay:10.37,2013-02-02 16:00:00,
2013-02-02 11:01:00,61.9,32.4,30.25,East,95,6.3,6.3,33,0.00,CLR,,0.00,WeatherDisplay:10.37,2013-02-02 16:01:00,
2013-02-02 11:05:00,61.7,33.0,30.25,ESE,119,9.2,9.2,34,0.00,CLR,,0.00,WeatherDisplay:10.37,2013-02-02 16:05:00,
2013-02-02 11:10:00,61.9,33.2,30.25,SE,134,5.8,5.8,34,0.00,CLR,,0.00,WeatherDisplay:10.37,2013-02-02 16:10:00,
2013-02-02 11:16:00,62.2,32.8,30.25,North,3,3.4,3.4,33,0.00,CLR,,0.00,WeatherDisplay:10.37,2013-02-02 16:16:00,
2013-02-02 11:21:00,62.6,32.3,30.25,East,96,6.3,6.3,32,0.00,CLR,,0.00,WeatherDisplay:10.37,2013-02-02 16:21:00,
2013-02-02 11:31:00,63.5,32.3,30.25,SE,141,3.4,0.0,31,0.00,CLR,,0.00,WeatherDisplay:10.37,2013-02-02 16:31:00,
2013-02-02 11:36:00,63.9,32.6,30.25,ENE,78,5.8,5.8,31,0.00,CLR,,0.00,WeatherDisplay:10.37,2013-02-02 16:36:00,
2013-02-02 11:46:00,64.6,31.6,30.22,SE,125,6.3,6.3,29,0.00,CLR,,0.00,WeatherDisplay:10.37,2013-02-02 16:46:00,
2013-02-02 11:51:00,64.9,30.1,30.22,North,8,7.6,7.6,27,0.00,CLR,,0.00,WeatherDisplay:10.37,2013-02-02 16:51:00,
2013-02-02 12:00:00,65.7,30.7,30.22,ESE,105,5.8,5.8,27,0.00,CLR,,0.00,WeatherDisplay:10.37,2013-02-02 17:00:00,
2013-02-02 12:01:00,66.4,29.5,30.22,ESE,106,6.3,6.3,25,0.00,CLR,,0.00,WeatherDisplay:10.37,2013-02-02 17:01:00,
2013-02-02 12:05:00,66.0,31.1,30.22,NNE,27,5.8,0.0,27,0.00,CLR,,0.00,WeatherDisplay:10.37,2013-02-02 17:05:00,
2013-02-02 12:10:00,66.4,29.5,30.22,SE,133,3.4,3.4,25,0.00,CLR,,0.00,WeatherDisplay:10.37,2013-02-02 17:10:00,
2013-02-02 12:16:00,66.6,29.6,30.22,North,2,4.0,4.0,25,0.00,CLR,,0.00,WeatherDisplay:10.37,2013-02-02 17:16:00,
2013-02-02 12:21:00,66.9,29.9,30.22,ESE,123,8.1,8.1,25,0.00,CLR,,0.00,WeatherDisplay:10.37,2013-02-02 17:21:00,
2013-02-02 12:31:00,67.6,29.5,30.19,ESE,115,3.6,0.0,24,0.00,CLR,,0.00,WeatherDisplay:10.37,2013-02-02 17:31:00,
2013-02-02 12:36:00,68.0,28.8,30.19,North,357,5.8,5.8,23,0.00,CLR,,0.00,WeatherDisplay:10.37,2013-02-02 17:36:00,
2013-02-02 12:46:00,68.2,21.7,30.19,ESE,105,5.8,5.8,17,0.00,CLR,,0.00,WeatherDisplay:10.37,2013-02-02 17:46:00,
2013-02-02 12:51:00,68.5,25.8,30.19,ENE,67,5.4,5.4,20,0.00,CLR,,0.00,WeatherDisplay:10.37,2013-02-02 17:51:00,
2013-02-02 13:00:00,69.6,22.8,30.19,WNW,294,3.6,3.6,17,0.00,CLR,,0.00,WeatherDisplay:10.37,2013-02-02 18:00:00,
2013-02-02 13:01:00,70.2,23.3,30.19,NNE,24,4.0,4.0,17,0.00,CLR,,0.00,WeatherDisplay:10.37,2013-02-02 18:01:00,
2013-02-02 13:05:00,69.8,25.6,30.19,ENE,58,3.4,3.4,19,0.00,CLR,,0.00,WeatherDisplay:10.37,2013-02-02 18:05:00,
2013-02-02 13:10:00,70.0,23.1,30.19,North,357,3.4,3.4,17,0.00,CLR,,0.00,WeatherDisplay:10.37,2013-02-02 18:10:00,
2013-02-02 13:16:00,70.3,23.4,30.19,SW,225,3.6,3.6,17,0.00,CLR,,0.00,WeatherDisplay:10.37,2013-02-02 18:16:00,
2013-02-02 13:21:00,70.0,23.1,30.19,North,353,5.4,5.4,17,0.00,CLR,,0.00,WeatherDisplay:10.37,2013-02-02 18:21:00,
2013-02-02 13:31:00,70.7,23.7,30.19,NW,316,3.4,3.4,17,0.00,CLR,,0.00,WeatherDisplay:10.37,2013-02-02 18:31:00,
2013-02-02 13:36:00,70.9,23.9,30.19,North,357,4.6,4.6,17,0.00,CLR,,0.00,WeatherDisplay:10.37,2013-02-02 18:36:00,
2013-02-02 13:46:00,71.8,20.0,30.16,NNE,12,5.8,5.8,14,0.00,CLR,,0.00,WeatherDisplay:10.37,2013-02-02 18:46:00,
2013-02-02 13:51:00,71.8,23.1,30.16,NW,325,4.0,4.0,16,0.00,CLR,,0.00,WeatherDisplay:10.37,2013-02-02 18:51:00,
2013-02-02 14:00:00,71.8,20.0,30.16,North,350,5.8,5.8,14,0.00,CLR,,0.00,WeatherDisplay:10.37,2013-02-02 19:00:00,
2013-02-02 14:01:00,72.5,20.5,30.16,East,87,3.6,0.0,14,0.00,CLR,,0.00,WeatherDisplay:10.37,2013-02-02 19:01:00,
2013-02-02 14:05:00,72.1,20.3,30.16,NNW,329,4.6,4.6,14,0.00,CLR,,0.00,WeatherDisplay:10.37,2013-02-02 19:05:00,
2013-02-02 14:10:00,72.3,20.4,30.16,WSW,247,3.4,3.4,14,0.00,CLR,,0.00,WeatherDisplay:10.37,2013-02-02 19:10:00,
2013-02-02 14:16:00,72.7,20.7,30.16,NNW,338,8.1,8.1,14,0.00,CLR,,0.00,WeatherDisplay:10.37,2013-02-02 19:16:00,
2013-02-02 14:21:00,72.5,23.7,30.16,NW,309,3.6,3.6,16,0.00,CLR,,0.00,WeatherDisplay:10.37,2013-02-02 19:21:00,
2013-02-02 14:31:00,72.1,20.3,30.16,ESE,107,3.4,0.0,14,0.00,CLR,,0.00,WeatherDisplay:10.37,2013-02-02 19:31:00,
2013-02-02 14:36:00,71.6,23.0,30.16,ESE,105,4.0,0.0,16,0.00,CLR,,0.00,WeatherDisplay:10.37,2013-02-02 19:36:00,
2013-02-02 14:46:00,72.7,23.9,30.16,SE,136,2.3,2.3,16,0.00,CLR,,0.00,WeatherDisplay:10.37,2013-02-02 19:46:00,
2013-02-02 14:51:00,74.5,25.3,30.16,South,177,3.4,0.0,16,0.00,CLR,,0.00,WeatherDisplay:10.37,2013-02-02 19:51:00,
2013-02-02 15:00:00,74.1,25.0,30.16,SW,233,5.8,5.8,16,0.00,CLR,,0.00,WeatherDisplay:10.37,2013-02-02 20:00:00,
2013-02-02 15:01:00,74.3,25.2,30.13,WSW,255,6.3,6.3,16,0.00,CLR,,0.00,WeatherDisplay:10.37,2013-02-02 20:01:00,
2013-02-02 15:05:00,73.9,24.9,30.16,WSW,246,8.3,8.3,16,0.00,CLR,,0.00,WeatherDisplay:10.37,2013-02-02 20:05:00,
2013-02-02 15:10:00,74.3,25.2,30.13,SSE,157,5.8,5.8,16,0.00,CLR,,0.00,WeatherDisplay:10.37,2013-02-02 20:10:00,
2013-02-02 15:16:00,74.3,25.2,30.13,WSW,245,3.6,3.6,16,0.00,CLR,,0.00,WeatherDisplay:10.37,2013-02-02 20:16:00,
2013-02-02 15:21:00,74.3,25.2,30.13,West,270,5.8,5.8,16,0.00,CLR,,0.00,WeatherDisplay:10.37,2013-02-02 20:21:00,
2013-02-02 15:31:00,74.3,28.0,30.16,NNW,329,5.8,5.8,18,0.00,CLR,,0.00,WeatherDisplay:10.37,2013-02-02 20:31:00,
2013-02-02 15:36:00,74.3,28.0,30.16,North,4,5.8,5.8,18,0.00,CLR,,0.00,WeatherDisplay:10.37,2013-02-02 20:36:00,
2013-02-02 15:46:00,73.2,30.9,30.13,WSW,248,3.6,0.0,21,0.00,CLR,,0.00,WeatherDisplay:10.37,2013-02-02 20:46:00,
2013-02-02 15:51:00,73.2,30.9,30.13,West,275,5.8,5.8,21,0.00,CLR,,0.00,WeatherDisplay:10.37,2013-02-02 20:51:00,
2013-02-02 16:00:00,73.8,31.4,30.16,West,266,4.0,4.0,21,0.00,CLR,,0.00,WeatherDisplay:10.37,2013-02-02 21:00:00,
2013-02-02 16:01:00,73.8,31.4,30.16,SW,223,6.3,6.3,21,0.00,CLR,,0.00,WeatherDisplay:10.37,2013-02-02 21:01:00,
2013-02-02 16:05:00,73.8,31.4,30.16,WNW,303,5.8,5.8,21,0.00,CLR,,0.00,WeatherDisplay:10.37,2013-02-02 21:05:00,
2013-02-02 16:10:00,73.9,31.5,30.16,South,186,3.6,3.6,21,0.00,CLR,,0.00,WeatherDisplay:10.37,2013-02-02 21:10:00,
2013-02-02 16:16:00,73.9,31.5,30.16,SW,221,4.6,4.6,21,0.00,CLR,,0.00,WeatherDisplay:10.37,2013-02-02 21:16:00,
2013-02-02 16:21:00,74.1,31.7,30.16,WSW,250,8.1,8.1,21,0.00,CLR,,0.00,WeatherDisplay:10.37,2013-02-02 21:21:00,
2013-02-02 16:31:00,73.8,31.4,30.16,West,263,3.4,3.4,21,0.00,CLR,,0.00,WeatherDisplay:10.37,2013-02-02 21:31:00,
2013-02-02 16:36:00,73.2,32.1,30.16,SW,225,8.1,8.1,22,0.00,CLR,,0.00,WeatherDisplay:10.37,2013-02-02 21:36:00,
2013-02-02 16:46:00,72.0,31.0,30.16,North,11,3.4,3.4,22,0.00,CLR,,0.00,WeatherDisplay:10.37,2013-02-02 21:46:00,
2013-02-02 16:51:00,70.9,31.2,30.16,West,278,3.6,3.6,23,0.00,CLR,,0.00,WeatherDisplay:10.37,2013-02-02 21:51:00,
2013-02-02 17:00:00,69.3,30.9,30.16,West,268,8.0,8.0,24,0.00,CLR,,0.00,WeatherDisplay:10.37,2013-02-02 22:00:00,
2013-02-02 17:01:00,68.4,32.1,30.16,WNW,290,4.6,4.6,26,0.00,CLR,,0.00,WeatherDisplay:10.37,2013-02-02 22:01:00,
2013-02-02 17:05:00,68.7,31.4,30.16,NW,325,5.8,5.8,25,0.00,CLR,,0.00,WeatherDisplay:10.37,2013-02-02 22:05:00,
2013-02-02 17:10:00,68.4,32.1,30.16,NNW,328,4.0,4.0,26,0.00,CLR,,0.00,WeatherDisplay:10.37,2013-02-02 22:10:00,
2013-02-02 17:16:00,68.0,31.8,30.16,West,281,8.1,8.1,26,0.00,CLR,,0.00,WeatherDisplay:10.37,2013-02-02 22:16:00,
2013-02-02 17:21:00,67.5,32.3,30.16,WNW,290,5.8,5.8,27,0.00,CLR,,0.00,WeatherDisplay:10.37,2013-02-02 22:21:00,
2013-02-02 17:31:00,66.6,33.3,30.16,WNW,283,5.8,5.8,29,0.00,CLR,,0.00,WeatherDisplay:10.37,2013-02-02 22:31:00,
2013-02-02 17:36:00,65.7,34.2,30.16,North,353,8.1,8.1,31,0.00,CLR,,0.00,WeatherDisplay:10.37,2013-02-02 22:36:00,
2013-02-02 17:46:00,64.4,34.6,30.16,North,353,5.8,5.8,33,0.00,CLR,,0.00,WeatherDisplay:10.37,2013-02-02 22:46:00,
2013-02-02 17:51:00,63.9,35.7,30.16,NNW,336,3.4,3.4,35,0.00,CLR,,0.00,WeatherDisplay:10.37,2013-02-02 22:51:00,
2013-02-02 18:00:00,63.3,35.2,30.13,NW,321,5.8,5.8,35,0.00,CLR,,0.00,WeatherDisplay:10.37,2013-02-02 23:00:00,
2013-02-02 18:01:00,62.2,35.6,30.16,North,357,5.8,5.8,37,0.00,CLR,,0.00,WeatherDisplay:10.37,2013-02-02 23:01:00,
2013-02-02 18:05:00,63.0,35.6,30.13,West,270,4.6,4.6,36,0.00,CLR,,0.00,WeatherDisplay:10.37,2013-02-02 23:05:00,
2013-02-02 18:10:00,62.2,35.6,30.16,NNW,337,6.3,6.3,37,0.00,CLR,,0.00,WeatherDisplay:10.37,2013-02-02 23:10:00,
2013-02-02 18:16:00,61.9,35.3,30.16,North,350,5.8,5.8,37,0.00,CLR,,0.00,WeatherDisplay:10.37,2013-02-02 23:16:00,
2013-02-02 18:21:00,61.5,35.0,30.16,NW,323,8.1,8.1,37,0.00,CLR,,0.00,WeatherDisplay:10.37,2013-02-02 23:21:00,
2013-02-02 18:31:00,61.0,34.5,30.16,NW,309,8.1,8.1,37,0.00,CLR,,0.00,WeatherDisplay:10.37,2013-02-02 23:31:00,
2013-02-02 18:36:00,60.6,34.9,30.16,NNW,348,8.1,8.1,38,0.00,CLR,,0.00,WeatherDisplay:10.37,2013-02-02 23:36:00,
2013-02-02 18:46:00,60.1,34.4,30.16,NNW,330,3.6,3.6,38,0.00,CLR,,0.00,WeatherDisplay:10.37,2013-02-02 23:46:00,
2013-02-02 18:51:00,59.9,34.9,30.16,NNW,339,5.4,5.4,39,0.00,CLR,,0.00,WeatherDisplay:10.37,2013-02-02 23:51:00,
2013-02-02 19:00:00,59.5,34.5,30.16,NNW,343,3.6,3.6,39,0.00,CLR,,0.00,WeatherDisplay:10.37,2013-02-03 00:00:00,
2013-02-02 19:01:00,59.2,34.9,30.16,NNW,335,4.6,4.6,40,0.00,CLR,,0.00,WeatherDisplay:10.37,2013-02-03 00:01:00,
2013-02-02 19:05:00,59.4,35.0,30.16,NNW,339,5.8,5.8,40,0.00,CLR,,0.00,WeatherDisplay:10.37,2013-02-03 00:05:00,
2013-02-02 19:10:00,59.2,34.9,30.16,NNW,337,4.9,4.9,40,0.00,CLR,,0.00,WeatherDisplay:10.37,2013-02-03 00:10:00,
2013-02-02 19:16:00,59.0,34.7,30.16,NNW,336,3.4,3.4,40,0.00,CLR,,0.00,WeatherDisplay:10.37,2013-02-03 00:16:00,
2013-02-02 19:21:00,58.8,35.2,30.16,NNW,339,5.8,5.8,41,0.00,CLR,,0.00,WeatherDisplay:10.37,2013-02-03 00:21:00,
2013-02-02 19:31:00,58.5,34.8,30.16,NNW,333,4.0,4.0,41,0.00,CLR,,0.00,WeatherDisplay:10.37,2013-02-03 00:31:00,
2013-02-02 19:36:00,58.3,34.7,30.16,North,0,3.4,4.0,41,0.00,CLR,,0.00,WeatherDisplay:10.37,2013-02-03 00:36:00,
2013-02-02 19:46:00,57.9,34.9,30.16,NNW,346,4.6,4.6,42,0.00,CLR,,0.00,WeatherDisplay:10.37,2013-02-03 00:46:00,
2013-02-02 19:51:00,57.9,34.9,30.16,North,349,3.4,3.4,42,0.00,CLR,,0.00,WeatherDisplay:10.37,2013-02-03 00:51:00,
2013-02-02 20:00:00,57.6,35.2,30.16,NNW,346,3.6,3.6,43,0.00,CLR,,0.00,WeatherDisplay:10.37,2013-02-03 01:00:00,
2013-02-02 20:01:00,57.2,35.5,30.16,NNW,340,3.4,0.0,44,0.00,CLR,,0.00,WeatherDisplay:10.37,2013-02-03 01:01:00,
2013-02-02 20:05:00,57.4,35.0,30.16,North,1,3.4,3.4,43,0.00,CLR,,0.00,WeatherDisplay:10.37,2013-02-03 01:05:00,
2013-02-02 20:10:00,57.2,35.5,30.16,North,353,2.3,0.0,44,0.00,CLR,,0.00,WeatherDisplay:10.37,2013-02-03 01:10:00,
2013-02-02 20:16:00,57.0,35.9,30.16,North,0,3.4,3.4,45,0.00,CLR,,0.00,WeatherDisplay:10.37,2013-02-03 01:16:00,
2013-02-02 20:21:00,56.8,35.7,30.16,NNW,339,3.6,3.6,45,0.00,CLR,,0.00,WeatherDisplay:10.37,2013-02-03 01:21:00,
2013-02-02 20:31:00,56.7,35.5,30.16,North,357,3.6,3.6,45,0.00,CLR,,0.00,WeatherDisplay:10.37,2013-02-03 01:31:00,
2013-02-02 20:36:00,56.5,35.9,30.16,NNW,348,3.4,3.4,46,0.00,CLR,,0.00,WeatherDisplay:10.37,2013-02-03 01:36:00,
2013-02-02 20:46:00,56.3,35.8,30.16,NNW,341,3.4,3.4,46,0.00,CLR,,0.00,WeatherDisplay:10.37,2013-02-03 01:46:00,
2013-02-02 20:51:00,56.1,35.6,30.16,NNW,329,3.4,3.4,46,0.00,CLR,,0.00,WeatherDisplay:10.37,2013-02-03 01:51:00,
2013-02-02 21:00:00,55.9,35.4,30.16,NNW,348,4.0,4.0,46,0.00,CLR,,0.00,WeatherDisplay:10.37,2013-02-03 02:00:00,
2013-02-02 21:01:00,55.8,35.3,30.16,NNW,346,3.4,3.4,46,0.00,CLR,,0.00,WeatherDisplay:10.37,2013-02-03 02:01:00,
2013-02-02 21:05:00,55.8,35.3,30.16,North,353,3.4,3.4,46,0.00,CLR,,0.00,WeatherDisplay:10.37,2013-02-03 02:05:00,
2013-02-02 21:10:00,55.8,35.3,30.16,North,353,3.4,3.4,46,0.00,CLR,,0.00,WeatherDisplay:10.37,2013-02-03 02:10:00,
2013-02-02 21:16:00,55.6,35.7,30.16,NNW,334,2.7,2.7,47,0.00,CLR,,0.00,WeatherDisplay:10.37,2013-02-03 02:16:00,
2013-02-02 21:21:00,55.6,35.7,30.16,North,353,2.3,0.0,47,0.00,CLR,,0.00,WeatherDisplay:10.37,2013-02-03 02:21:00,
2013-02-02 21:31:00,55.2,35.3,30.16,NNE,31,0.0,0.0,47,0.00,CLR,,0.00,WeatherDisplay:10.37,2013-02-03 02:31:00,
2013-02-02 21:36:00,55.0,35.2,30.16,NNE,31,0.0,0.0,47,0.00,CLR,,0.00,WeatherDisplay:10.37,2013-02-03 02:36:00,
2013-02-02 21:46:00,54.0,34.2,30.16,NNE,31,0.0,0.0,47,0.00,CLR,,0.00,WeatherDisplay:10.37,2013-02-03 02:46:00,
2013-02-02 21:51:00,53.4,34.2,30.16,NNE,31,0.0,0.0,48,0.00,CLR,,0.00,WeatherDisplay:10.37,2013-02-03 02:51:00,
2013-02-02 22:00:00,52.9,33.7,30.16,NNE,31,0.0,0.0,48,0.00,CLR,,0.00,WeatherDisplay:10.37,2013-02-03 03:00:00,
2013-02-02 22:01:00,52.0,33.4,30.16,NNE,31,0.0,0.0,49,0.00,CLR,,0.00,WeatherDisplay:10.37,2013-02-03 03:01:00,
2013-02-02 22:05:00,52.5,33.4,30.16,NNE,31,0.0,0.0,48,0.00,CLR,,0.00,WeatherDisplay:10.37,2013-02-03 03:05:00,
2013-02-02 22:10:00,52.2,33.6,30.16,NNE,31,0.0,0.0,49,0.00,CLR,,0.00,WeatherDisplay:10.37,2013-02-03 03:10:00,
2013-02-02 22:16:00,51.6,33.1,30.16,NNE,31,0.0,0.0,49,0.00,CLR,,0.00,WeatherDisplay:10.37,2013-02-03 03:16:00,
2013-02-02 22:21:00,51.4,32.9,30.16,NNE,31,0.0,0.0,49,0.00,CLR,,0.00,WeatherDisplay:10.37,2013-02-03 03:21:00,
2013-02-02 22:31:00,50.9,32.9,30.16,NNE,31,0.0,0.0,50,0.00,CLR,,0.00,WeatherDisplay:10.37,2013-02-03 03:31:00,
2013-02-02 22:36:00,50.7,32.7,30.16,NNE,31,0.0,0.0,50,0.00,CLR,,0.00,WeatherDisplay:10.37,2013-02-03 03:36:00,
2013-02-02 22:46:00,50.2,32.7,30.16,NNE,31,0.0,0.0,51,0.00,CLR,,0.00,WeatherDisplay:10.37,2013-02-03 03:46:00,
2013-02-02 22:51:00,50.2,32.7,30.16,NNE,31,0.0,0.0,51,0.00,CLR,,0.00,WeatherDisplay:10.37,2013-02-03 03:51:00,
2013-02-02 23:00:00,49.8,32.9,30.16,NNE,31,0.0,0.0,52,0.00,CLR,,0.00,WeatherDisplay:10.37,2013-02-03 04:00:00,
2013-02-02 23:01:00,49.6,33.2,30.16,NNE,31,0.0,0.0,53,0.00,CLR,,0.00,WeatherDisplay:10.37,2013-02-03 04:01:00,
2013-02-02 23:05:00,49.6,33.2,30.16,NNE,31,0.0,0.0,53,0.00,CLR,,0.00,WeatherDisplay:10.37,2013-02-03 04:05:00,
2013-02-02 23:10:00,49.6,33.2,30.16,NNE,31,0.0,0.0,53,0.00,CLR,,0.00,WeatherDisplay:10.37,2013-02-03 04:10:00,
2013-02-02 23:16:00,49.5,33.5,30.16,NNE,31,0.0,0.0,54,0.00,CLR,,0.00,WeatherDisplay:10.37,2013-02-03 04:16:00,
2013-02-02 23:21:00,49.3,33.3,30.16,NNE,31,0.0,0.0,54,0.00,CLR,,0.00,WeatherDisplay:10.37,2013-02-03 04:21:00,
2013-02-02 23:31:00,49.3,33.8,30.16,NNE,31,0.0,0.0,55,0.00,CLR,,0.00,WeatherDisplay:10.37,2013-02-03 04:31:00,
2013-02-02 23:36:00,49.1,33.6,30.16,NNE,31,0.0,0.0,55,0.00,CLR,,0.00,WeatherDisplay:10.37,2013-02-03 04:36:00,
2013-02-02 23:46:00,48.9,33.9,30.13,North,357,2.3,0.0,56,0.00,CLR,,0.00,WeatherDisplay:10.37,2013-02-03 04:46:00,
2013-02-02 23:51:00,48.9,33.9,30.13,North,357,0.0,0.0,56,0.00,CLR,,0.00,WeatherDisplay:10.37,2013-02-03 04:51:00,